Hourly Data Report for September 09, 2017

All times are specified in Local Standard Time (LST). Add 1 hour to adjust for Daylight Saving Time where and when it is observed.

PORT ALBERNI (AUT)
BRITISH COLUMBIA

49°18'59.700" N
124°55'36.600" W
76.20 m
1036B06
71475
WQC

Download Data

Hourly Data (September 2017)
Hourly Data Report for September 9, 2017
Temp Definition
°C
Dew Point Temp Definition
°C
Rel Hum Definition
%
Wind Dir Definition
10's deg

Wind Spd Definition
km/h
Visibility Definition
km
Stn Press Definition
kPa
Hmdx Definition


Wind Chill Definition


Weather Definition


TIME
00:00 13.9 10.4 80 12 8   100.54     LegendNANA
01:00 14.0 9.8 76 9 9   100.50     LegendNANA
02:00 13.4 9.5 77 10 8   100.54     LegendNANA
03:00 13.7 9.5 76 7 7   100.56     LegendNANA
04:00 13.8 9.3 74 8 9   100.57     LegendNANA
05:00 12.5 10.4 87 8 9   100.56     LegendNANA
06:00 12.1 11.0 93 11 5   100.56     LegendNANA
07:00 12.3 11.4 94 11 3   100.58     LegendNANA
08:00 12.6 11.8 95 3 8   100.58     LegendNANA
09:00 13.0 12.2 95 11 6   100.58     LegendNANA
10:00 13.6 12.7 94 11 11   100.58     LegendNANA
11:00 14.0 12.8 93 12 9   100.62     LegendNANA
12:00 14.8 13.4 91 11 11   100.62     LegendNANA
13:00 16.1 13.7 86 12 11   100.65     LegendNANA
14:00 17.7 13.6 77 10 10   100.66     LegendNANA
15:00 19.0 11.9 63 22 8   100.71     LegendNANA
16:00 19.5 10.4 56 19 8   100.77     LegendNANA
17:00 18.7 10.9 60 1 7   100.83     LegendNANA
18:00 17.4 11.9 70 11 12   100.89     LegendNANA
19:00 16.1 12.0 76 10 13   101.00     LegendNANA
20:00 14.7 11.9 83 11 9   101.11     LegendNANA
21:00 14.4 11.8 85 4 10   101.19     LegendNANA
22:00 12.7 11.2 90 4 8   101.25     LegendNANA
23:00 12.3 11.3 94 13 7   101.35     LegendNANA

Notes on Data Quality.

Legend

  • E = Estimated
  • M = Missing
  • NA = Not Available
  • ‡ = Partner data that is not subject to review by the National Climate Archives
Date modified: